x

8411060 - Cutler Farris Wharf, Me (cfwm1) Weather Station

3:54am - Mon 1st May 2017 All times are ADT. -3 hours from GMT.

  • Wind
    1mph, 3mph gusts
  • Sea Temp 41°f
  • Air Temp 42°f
  • Sea Pressure 1020.4mb
  •  8411060 - Cutler Farris Wharf, Me
  •  8411060 - Cutler Farris Wharf, Me

More Historic Weather Station data

Upgrade to MSW Pro to gain access to the past 30 days of data for over 8000 Wavebouys and Weather Stations around the globe.

Join Pro

Comparision Forecast

View Surf forecast
   
Mon 05/01 3:54am 1 3 mph 1020.4mb 41f 42f
3:48am  -  2 mph 1020.3mb - -
3:42am  -  1 mph 1020.3mb - -
3:36am  -  1 mph 1020.5mb - -
3:30am  -  1 mph 1020.7mb 41f 42f
3:24am  -  2 mph 1020.9mb 41f 42f
3:18am  -  2 mph 1021.2mb 41f 42f
3:12am 1
mph
1021.4mb 41f 42f
3:06am 1
mph
1021.5mb 41f 42f
3:00am  -  2 mph 1021.4mb 41f 42f
2:54am 1 2 mph 1021.2mb 41f 43f
2:48am 1 3 mph 1021.1mb 41f -
2:42am 3 5 mph 1021.2mb 41f -
2:36am 2
mph
1021.2mb 41f -
2:30am 1
mph
1021.3mb 41f 43f
2:24am  -  1 mph 1021.3mb 41f 43f
2:18am  -  1 mph 1021.5mb 41f 43f
2:12am  -  mph 1021.5mb 41f 43f
2:06am  -  2 mph 1021.9mb 41f 43f
2:00am 2 3 mph 1021.9mb 41f 43f
1:54am 2 3 mph 1022mb 41f 43f
1:48am 2 3 mph 1022mb 41f 43f
1:42am 1 6 mph 1022.3mb 41f 43f
1:36am 3 5 mph 1022.3mb 41f 43f
1:30am  -  1 mph 1022.2mb 41f 43f
1:24am  -  2 mph 1022.2mb 41f 43f
1:18am 1 2 mph 1022.6mb 41f 43f
1:12am  -  2 mph 1022.4mb 41f 43f
1:06am  -  5 mph 1022.4mb 41f 43f
1:00am 2
mph
1022.4mb 41f 43f
12:54am  -  3 mph 1022.5mb 41f 43f
12:48am  -  3 mph 1022.5mb 41f 43f
12:42am 1 3 mph 1022.3mb 41f 42f
12:36am  -  6 mph 1022.3mb 41f 42f
12:30am 2 5 mph 1021.8mb 41f 42f
12:24am 1 3 mph 1022.8mb 41f 42f
12:18am  -  3 mph 1022.3mb 42f 42f
12:12am 2 3 mph 1022.5mb 42f 42f
12:06am 1 3 mph 1022.6mb 42f 42f
12:00am 2 6 mph 1022.9mb 42f 42f
Sun 04/30 11:54pm 3 5 mph 1023.4mb 42f 42f
11:48pm 3 6 mph 1023.5mb 42f 42f
11:42pm 3 6 mph 1023.4mb 42f 42f
11:36pm 5 6 mph 1023.2mb 43f 42f
11:30pm 3
mph
1023.2mb 43f 42f
11:24pm 2 6 mph 1023.2mb 43f 42f
11:18pm 2 5 mph 1023.5mb 43f 42f
11:12pm 2 6 mph 1023.5mb 43f 42f
11:06pm 2 7 mph 1023.7mb 43f 42f
11:00pm 5
mph
1023.7mb 43f 42f
10:54pm 2 3 mph 1023.5mb 43f 42f
10:48pm 2 3 mph 1023.6mb 43f 42f
10:42pm 2 3 mph 1023.4mb 43f 42f
10:36pm 2 3 mph 1023.2mb 43f 42f
10:30pm 1 3 mph 1023.6mb 43f 42f
10:24pm 2
mph
1023.8mb 43f 42f
10:18pm 1 3 mph 1024mb 43f 42f
10:12pm 3 5 mph 1024mb 43f 42f
10:06pm 1 3 mph 1024mb 43f 42f
10:00pm 3 6 mph 1024.1mb 43f 42f
9:48pm 3 6 mph 1024.3mb 43f 42f
9:42pm 3 6 mph 1024.1mb 43f 42f
9:36pm 6 8 mph 1024.2mb 43f 42f
9:30pm 6
mph
1024.1mb 43f 42f
9:24pm 3 6 mph 1024mb 43f 42f
9:18pm 6 9 mph 1023.9mb 43f 42f
9:12pm 5 7 mph 1023.8mb 43f 42f
9:06pm 3 6 mph 1023.8mb 43f 42f
9:00pm 3 5 mph 1023.8mb 43f 42f
8:48pm 3 7 mph 1023.7mb 43f 42f
8:42pm 5 8 mph 1023.8mb 43f 42f
8:36pm 5 6 mph 1023.8mb 43f 42f
8:00pm 6 10 mph 1023.7mb 42f 42f
7:54pm 7 8 mph 1023.4mb 42f 42f
7:48pm 5 7 mph 1023.5mb 42f 42f
7:42pm 3 7 mph 1023.4mb 42f 42f
7:36pm 5 7 mph 1023.3mb 42f 42f
7:30pm 6 9 mph 1023.2mb 42f 42f
7:24pm 6 11 mph 1023.3mb 42f 42f
7:18pm 7 9 mph 1023.1mb 42f 42f
7:12pm 7 8 mph 1023mb 42f 42f
7:06pm 6 9 mph 1023mb 42f 42f
7:00pm 5 9 mph 1023mb 42f 43f
6:54pm 6
mph
1022.8mb 42f 43f
6:48pm 5 9 mph 1022.8mb 42f 43f
6:42pm 6 10 mph 1022.9mb 42f 43f
6:36pm 7
mph
1022.8mb 42f 44f
6:30pm 5 9 mph 1022.7mb 41f 44f
6:24pm 7 9 mph 1022.6mb 41f 43f
6:18pm 6 7 mph 1022.6mb 41f 44f
6:12pm 5 7 mph 1022.6mb 41f 44f
6:06pm 6 8 mph 1022.6mb 41f 43f
6:00pm 7 10 mph 1022.8mb 41f 43f
5:54pm 7 8 mph 1022.8mb 41f 43f
5:48pm 3 7 mph 1022.9mb 41f 44f
5:42pm 5 7 mph 1023mb 41f 44f
5:36pm 2 8 mph 1023mb 41f 45f
5:30pm 6 10 mph 1023.1mb 41f 45f
5:24pm 7 14 mph 1023.2mb 41f 45f
5:18pm 10 14 mph 1023.2mb 42f 45f
5:12pm 7 11 mph 1023.1mb 42f 45f
5:06pm 8 14 mph 1023.2mb 42f 44f
5:00pm 10 14 mph 1023mb 42f 44f
4:54pm 10 15 mph 1023mb 42f 44f
4:48pm 8 15 mph 1023mb 42f 44f
4:42pm 10 15 mph 1023mb 42f 44f
4:36pm 9 14 mph 1023.1mb 42f 44f
4:30pm 10 15 mph 1023.1mb 42f 44f
4:24pm 10 15 mph 1023.1mb 42f 43f
4:18pm 11 15 mph 1023mb 42f 43f
4:12pm 10 15 mph 1022.7mb 42f 44f
4:06pm 11 16 mph 1022.7mb 42f 44f
4:00pm 10 17 mph 1022.6mb 42f 45f
3:54pm 9 14 mph 1022.7mb 42f 45f
3:48pm 7 14 mph 1022.9mb 42f 44f
3:42pm 11 15 mph 1022.9mb 42f 44f
3:36pm 10 16 mph 1023.1mb 42f 44f
3:30pm 13 17 mph 1023mb 42f 44f
3:24pm 8 14 mph 1023mb 42f 44f
3:18pm 6 13 mph 1023mb 42f 44f
3:12pm 6 14 mph 1023.1mb 41f 44f
3:06pm 9 15 mph 1023.1mb 41f 44f
3:00pm 6 11 mph 1023mb 41f 44f
2:54pm 6 16 mph 1022.9mb 41f 44f
2:48pm 11 15 mph 1023mb 41f 43f
2:42pm 6 17 mph 1023mb 41f 44f
2:36pm 10 16 mph 1023.2mb 41f 44f
2:30pm 8 14 mph 1023mb 41f 44f
2:24pm 9 15 mph 1022.9mb 41f 44f
2:18pm 10 13 mph 1022.9mb 41f 45f
2:12pm 3 10 mph 1023mb 41f 46f
2:06pm 2 15 mph 1023.1mb 41f 46f
2:00pm 10 14 mph 1023mb 41f 44f
1:54pm 3 14 mph 1023.2mb 41f 46f
1:48pm 10 13 mph 1023.3mb 41f 44f
1:42pm 3 10 mph 1023.1mb 41f 46f
1:36pm 7 14 mph 1023.4mb 41f 45f
1:30pm 2 6 mph 1023.2mb 41f 47f
1:24pm 2 8 mph 1023mb 41f 46f
1:18pm 3 15 mph 1023.1mb 41f 45f
1:12pm 2 5 mph 1022.9mb 41f 48f
1:06pm 2 6 mph 1023.1mb 41f 48f
1:00pm 3 7 mph 1023.3mb 41f 48f
12:54pm 5 6 mph 1023mb 41f 49f
12:48pm 5 6 mph 1022.7mb 41f 49f
12:42pm 6 10 mph 1022.7mb 41f 49f
12:36pm 7 13 mph 1022.9mb 41f 50f
12:30pm 3 14 mph 1022.6mb 41f 49f
12:24pm 9 11 mph 1022.7mb 41f 49f
12:18pm 5 16 mph 1022.7mb 41f 50f
12:12pm 6 11 mph 1022.5mb 41f 49f
12:06pm 2 14 mph 1022.5mb 41f 48f
12:00pm 9 15 mph 1022.2mb 41f 48f
11:54am 7 15 mph 1022.1mb 41f 48f
11:48am 7 16 mph 1022.4mb 41f 47f
11:42am 7 14 mph 1022.1mb 41f 48f
11:36am 7 17 mph 1022.2mb 42f 47f
11:30am 9 16 mph 1022.3mb 42f 46f
11:24am 7 10 mph 1022.3mb 42f 47f
11:18am 7 15 mph 1022.4mb 42f 46f
11:12am 8 14 mph 1022.3mb 42f 46f
11:06am 3 11 mph 1022.4mb 42f 46f
11:00am 6 16 mph 1022.5mb 42f 45f
10:54am 7 18 mph 1022.6mb 42f 46f
10:48am 6 13 mph 1022.5mb 43f 45f
10:42am 7 18 mph 1022.6mb 48f 45f
10:36am 9 18 mph 1022.4mb 49f 45f
10:30am 5 16 mph 1022.4mb 47f 45f
10:24am 7 13 mph 1022.2mb 45f 45f
10:18am 10 18 mph 1022.1mb 43f 44f
10:12am 14 20 mph 1022mb 42f 44f
10:06am 8 16 mph 1022.1mb 42f 44f
10:00am 9 17 mph 1022mb 41f 43f
9:48am 8 20 mph 1021.9mb 40f 43f
9:42am 10 18 mph 1021.7mb 40f 43f
9:36am 8 17 mph 1022.1mb 40f 42f
9:30am 9 18 mph 1022.2mb 39f 42f
9:24am 9 21 mph 1022.2mb 39f 42f
9:18am 9 18 mph 1022.2mb 39f 42f
9:12am 10 20 mph 1022.4mb 38f 42f
9:06am 8 20 mph 1022.3mb 38f 42f
9:00am 9 20 mph 1022.1mb 38f 41f
8:54am 11 21 mph 1022mb 38f 41f
8:48am 10 23 mph 1022.1mb 38f 41f
8:42am 13 28 mph 1022.1mb 38f 41f
8:36am 9 25 mph 1022mb 39f 41f
8:30am 11 20 mph 1021.9mb 40f 40f
8:24am 9 23 mph 1022mb 40f 41f
8:18am 10 20 mph 1022mb 40f 40f
8:12am 8 16 mph 1021.9mb 40f 40f
8:06am 6 24 mph 1021.8mb 41f 40f
8:00am 9 15 mph 1021.8mb 41f 40f
7:54am 9 20 mph 1021.6mb 41f 40f
7:48am 10 18 mph 1021.4mb 41f 39f
7:42am 7 16 mph 1021.4mb 41f 39f
7:36am 8 13 mph 1021.4mb 40f 39f
7:30am 5 11 mph 1021.4mb 40f 39f
7:24am 6 11 mph 1021.3mb 40f 39f
7:18am 7 15 mph 1021.2mb 40f 38f
7:12am 8 17 mph 1021mb 40f 38f
7:06am 8 16 mph 1021mb 40f 38f
7:00am 10 15 mph 1020.9mb 40f 38f
6:54am 9 14 mph 1020.8mb 40f 38f
6:48am 6 13 mph 1020.5mb 40f 38f
6:42am 8 13 mph 1020.7mb 40f 38f
6:36am 6 11 mph 1020.4mb 40f 38f
6:30am 6 11 mph 1020.5mb 40f 37f
6:24am 7 15 mph 1020.4mb 40f 38f
6:18am 8 13 mph 1020.4mb 40f 38f
6:12am 8 17 mph 1020.3mb 40f 38f
6:06am 8 17 mph 1020.1mb 40f 38f
6:00am 9 17 mph 1020mb 40f 38f
5:54am 7 16 mph 1019.8mb 40f 38f
5:48am 9 14 mph 1019.6mb 40f 38f
5:42am 7 17 mph 1019.5mb 40f 38f
5:36am 10 14 mph 1019.4mb 40f 38f
5:30am 6 15 mph 1019.2mb 40f 38f
5:24am 10 17 mph 1019.1mb 40f 39f
5:18am 7 15 mph 1019mb 40f 39f
5:12am 7 11 mph 1019mb 40f 39f
5:06am 9 14 mph 1019.1mb 40f 39f
5:00am 9 17 mph 1019.1mb 40f 39f
4:54am 10 17 mph 1019.1mb 40f 39f
4:48am 8 14 mph 1019.2mb 40f 39f
4:42am 7 14 mph 1018.9mb 40f 40f
4:36am 9 16 mph 1018.8mb 40f 40f
4:30am 9 16 mph 1018.7mb 40f 40f
4:24am 8 20 mph 1018.6mb 40f 40f
4:18am 10 21 mph 1018.4mb 40f 40f
4:12am 7 14 mph 1018.2mb 40f 40f
4:06am 7 18 mph 1018.1mb 40f 40f
4:00am 10 18 mph 1018.2mb 40f 41f
3:54am 6 13 mph 1018mb 40f 41f
3:48am 8 14 mph 1017.9mb 40f -
3:42am 6 10 mph 1017.7mb 40f -
3:36am 8 15 mph 1017.3mb 40f -
3:30am 9 15 mph 1017.2mb 40f 42f
3:24am 8 13 mph 1017mb 40f 42f
3:18am 7 14 mph 1017mb 40f 42f
3:12am 5 11 mph 1016.8mb 40f 42f
3:06am 5 13 mph 1016.6mb 40f 42f
3:00am 7 14 mph 1016.5mb 40f 42f
2:54am 7 18 mph 1016.5mb 40f 43f
2:48am 7 13 mph 1016.4mb 40f 43f
2:42am 6 10 mph 1016.4mb 40f 43f
2:36am 2 10 mph 1016.3mb 40f 43f
2:30am 7 11 mph 1016.1mb 40f 43f
2:24am 5 11 mph 1015.9mb 40f 43f
2:18am 7 14 mph 1015.8mb 40f 44f
2:12am 5 13 mph 1015.8mb 40f 43f
2:06am 6 11 mph 1015.6mb 40f 44f
2:00am 6 14 mph 1015.3mb 40f 44f
1:54am 7 14 mph 1015.2mb 40f 44f
1:48am 8 14 mph 1015.1mb 40f 44f
1:42am 6 15 mph 1014.9mb 40f 44f
1:36am 8 16 mph 1014.8mb 40f 45f
1:30am 9 16 mph 1014.9mb 40f 45f
1:24am 10 24 mph 1014.8mb 40f 46f
1:18am 10 20 mph 1014.6mb 40f 46f
1:12am 10 23 mph 1014.5mb 40f 46f
1:06am 7 23 mph 1014.3mb 40f 46f
1:00am 14 22 mph 1014.2mb 40f 46f
12:54am 8 15 mph 1014mb 40f 47f
12:48am 7 14 mph 1013.8mb 40f 47f
12:42am 8 14 mph 1013.8mb 40f 47f
12:36am 8 13 mph 1013.6mb 40f 48f
12:30am 6 17 mph 1013.5mb 40f 48f
12:24am 6 13 mph 1013.2mb 40f 48f
12:18am 5 18 mph 1013mb 40f 49f
12:12am 9 14 mph 1012.9mb 40f 49f
12:06am 5 16 mph 1012.6mb 40f 49f
12:00am 9 21 mph 1012.5mb 40f 50f
Sat 04/29 11:54pm 14 23 mph 1012.3mb 40f 50f
11:48pm 11 21 mph 1012.1mb 40f 51f
11:42pm 9 17 mph 1011.8mb 40f 51f
11:36pm 8 23 mph 1011.5mb 40f 52f
11:30pm 10 16 mph 1011.1mb 40f 53f
11:24pm 9 17 mph 1010.8mb 40f 54f
11:18pm 10 18 mph 1010.6mb 41f 56f
11:12pm 11 21 mph 1010.3mb 41f 57f
11:06pm 9 17 mph 1009.9mb 41f 58f
11:00pm 5 7 mph 1009.1mb 41f 59f
10:54pm 5 10 mph 1008.9mb 41f 59f
10:48pm 6 7 mph 1008.7mb 42f 60f
10:42pm 5 8 mph 1008.5mb 42f 60f
10:36pm 5 9 mph 1008.4mb 42f 60f
10:30pm 7 10 mph 1008.4mb 42f 61f
10:24pm 5 13 mph 1008.1mb 42f 60f
10:18pm 6 11 mph 1008mb 42f 60f
10:12pm 5 7 mph 1007.9mb 42f 60f
10:06pm 5 7 mph 1007.8mb 42f 57f
10:00pm 5 7 mph 1007.7mb 43f 59f
9:48pm 3 6 mph 1007.4mb 43f 58f
9:42pm 3 7 mph 1007.4mb 43f 58f
9:36pm 3 6 mph 1007.3mb 43f 58f
9:30pm 5 7 mph 1007.3mb 43f 57f
9:24pm 3 6 mph 1007.2mb 44f 54f
9:18pm 3 9 mph 1007.1mb 44f 55f
9:12pm 6 8 mph 1006.8mb 44f 53f
9:06pm 7 8 mph 1006.6mb 44f 52f
9:00pm 2 6 mph 1006.5mb 44f 54f
8:54pm 5 7 mph 1006.4mb 44f 53f
8:48pm 5 6 mph 1006.3mb 44f 53f
8:42pm 5 8 mph 1006mb 44f 53f
8:36pm 5 6 mph 1005.9mb 44f 53f
8:30pm 3 6 mph 1005.8mb 44f 53f
8:24pm 5 7 mph 1005.7mb 43f 53f
8:18pm 5 8 mph 1005.6mb 43f 53f
8:12pm 6 8 mph 1005.5mb 43f 53f
8:06pm 3 7 mph 1005.3mb 43f 54f
8:00pm 5 7 mph 1005.1mb 43f 53f
7:48pm 3 7 mph 1004.9mb 42f 55f
7:42pm 3 7 mph 1004.8mb 42f 55f
7:36pm 5 6 mph 1004.8mb 42f 55f
7:30pm 5 6 mph 1004.5mb 42f 55f
7:24pm 1 6 mph 1004.5mb 42f 54f
7:18pm 3 5 mph 1004.5mb 42f 55f
7:12pm 2 3 mph 1004.6mb 42f 54f
7:06pm 1 6 mph 1004.7mb 42f 54f
7:00pm 1 2 mph 1004.7mb 42f 55f
6:48pm  -  5 mph 1004.8mb 41f 56f
6:42pm 2 7 mph 1004.9mb 41f 57f
6:36pm 5 7 mph 1004.9mb 41f 57f
6:30pm 3 6 mph 1005mb 41f 57f
6:24pm 5 8 mph 1005mb 41f 57f
6:18pm 2 6 mph 1005.1mb 41f 56f
6:12pm 5 8 mph 1005.1mb 41f 58f
6:06pm 6 8 mph 1005mb 41f 58f
6:00pm 6 9 mph 1005mb 41f 57f
5:54pm 6 15 mph 1005.1mb 41f 57f
5:48pm 9 10 mph 1005.1mb 41f 56f
5:42pm 7 10 mph 1005.1mb 41f 57f
5:36pm 6 10 mph 1005mb 41f 57f
5:30pm 7 10 mph 1005.2mb 41f 55f
5:24pm 6 8 mph 1005.1mb 41f 54f
5:18pm 6 8 mph 1005mb 41f 54f
5:12pm 7 9 mph 1005.1mb 41f 52f
5:06pm 8 14 mph 1005.3mb 41f 51f
5:00pm 10 14 mph 1005.3mb 40f 51f
4:54pm 9 14 mph 1005.5mb 40f 51f
4:48pm 9 15 mph 1005.5mb 40f 51f
4:42pm 13 16 mph 1005.6mb 40f 51f
4:36pm 10 11 mph 1005.6mb 40f 51f
4:30pm 6 8 mph 1005.6mb 40f 51f
4:24pm 3 7 mph 1005.7mb 40f 51f
4:18pm 5 8 mph 1005.9mb 40f 51f
4:12pm 6 8 mph 1006.1mb 40f 50f
4:06pm 5 13 mph 1006.3mb 40f 49f
4:00pm 9 14 mph 1006.1mb 40f 49f
3:54pm 6 10 mph 1006.2mb 40f 50f
3:48pm 6 8 mph 1006.2mb 40f 50f
3:42pm 6 7 mph 1006.4mb 40f 50f
3:36pm 5 6 mph 1006.5mb 40f 50f
3:30pm 1 2 mph 1006.6mb 40f 49f
3:24pm 1 3 mph 1006.7mb 40f 49f
3:18pm  -  2 mph 1006.9mb 40f 49f
3:12pm 1 6 mph 1007.2mb 40f 49f
3:06pm 5 7 mph 1007.3mb 40f 48f
3:00pm 6 7 mph 1007.3mb 40f 49f
2:54pm 6 8 mph 1007.4mb 40f 49f
2:48pm 6 8 mph 1007.4mb 40f 50f
2:42pm 6 9 mph 1007.4mb 40f 50f
2:36pm 7 9 mph 1007.5mb 40f 50f
2:30pm 5 8 mph 1007.5mb 40f 50f
2:24pm 3 6 mph 1007.6mb 40f 51f
2:18pm 1 6 mph 1007.8mb 40f 52f
2:12pm 3 5 mph 1007.9mb 40f 52f
2:06pm 3 7 mph 1007.9mb 40f 52f
2:00pm 5 7 mph 1008.1mb 40f 52f
1:54pm 6 8 mph 1008.5mb 40f 51f
1:48pm 6
mph
1008.7mb 40f 52f
1:42pm 5 7 mph 1008.6mb 40f 51f
1:36pm 3 5 mph 1008.8mb 40f 51f
1:30pm 2 5 mph 1008.9mb 40f 51f
1:24pm 3 6 mph 1009.2mb 40f 50f
1:18pm 5 6 mph 1009.7mb 40f 50f
1:12pm 2 3 mph 1009.8mb 40f 49f
1:06pm 2 5 mph 1009.9mb 40f 48f
1:00pm 3 6 mph 1010.1mb 40f 49f
12:54pm 3 7 mph 1010.4mb 40f 48f
12:48pm 5 7 mph 1010.4mb 40f 47f
12:42pm 2 3 mph 1010.5mb 40f 49f
12:36pm 2
mph
1010.2mb 40f 49f
12:30pm 2 3 mph 1010.4mb 40f 49f
12:24pm 2 5 mph 1010.5mb 40f 49f
12:18pm 3 5 mph 1010.6mb 41f 49f
12:12pm 2 5 mph 1010.8mb 41f 49f
12:06pm 3 6 mph 1010.8mb 41f 48f
12:00pm 6 7 mph 1010.8mb 41f 48f
11:54am 2 5 mph 1010.3mb 41f 47f
11:48am 3 7 mph 1010.6mb 41f 47f
11:42am 3 8 mph 1010.7mb 41f 46f
11:36am 3 10 mph 1010.9mb 41f 46f
11:30am 8 11 mph 1011.3mb 41f 45f
11:24am 9 14 mph 1011.6mb 41f 44f
11:18am 9 14 mph 1011.8mb 41f 44f
11:12am 9 14 mph 1011.9mb 41f 44f
11:06am 10 18 mph 1011.7mb 41f 44f
11:00am 11 14 mph 1011.8mb 41f 46f
10:54am  -  2 mph 1011mb 41f 47f
10:48am 1 5 mph 1010.8mb 41f 47f
10:42am 2 5 mph 1010.7mb 41f 47f
10:36am 1 2 mph 1010.8mb 41f 46f
10:30am  -  3 mph 1010.7mb 41f 46f
10:24am 2 3 mph 1010.5mb 41f 46f
10:18am 1 3 mph 1010.6mb 41f 45f
10:12am  -  3 mph 1011.1mb 41f 46f
10:06am 2
mph
1011.4mb 41f 45f
10:00am  -  2 mph 1011.9mb 41f 45f
9:54am  -  1 mph 1012.1mb 42f 44f
9:48am 1
mph
1012.4mb 44f 44f
9:42am 1 2 mph 1012.6mb 44f 44f
9:36am 1 3 mph 1012.8mb 44f 44f
9:30am 2 3 mph 1012.7mb 44f 45f
9:24am 2
mph
1012.7mb 44f 44f
9:18am 2 5 mph 1012.8mb 44f 44f
9:12am 2 3 mph 1012.6mb 44f 44f
9:06am 1 6 mph 1012.5mb 44f 44f
9:00am 2 3 mph 1012.4mb 44f 44f
8:54am 2 3 mph 1012.4mb 43f 44f
8:48am 2 5 mph 1012.4mb 43f 44f
8:42am 2 3 mph 1012.4mb 43f 43f
8:36am 2 3 mph 1012.3mb 43f 43f
8:30am  -  2 mph 1012.1mb 43f 43f
8:24am 2 3 mph 1012.3mb 43f 43f
8:18am 3 5 mph 1012.6mb 42f 43f
8:12am 1 2 mph 1012.5mb 42f 43f
8:06am  -  2 mph 1012.5mb 42f 43f
8:00am 2
mph
1012.6mb 42f 42f
7:54am  -  2 mph 1012.8mb 42f 43f
7:48am  -  1 mph 1012.8mb 42f 43f
7:42am  -  5 mph 1013mb 42f 42f
7:36am 2 6 mph 1013.1mb 42f 42f
7:30am 1 3 mph 1012.9mb 42f 43f
7:24am 3 5 mph 1012.9mb 41f 43f
7:18am  -  2 mph 1012.8mb 41f 43f
7:12am  -  3 mph 1013mb 41f 43f
7:06am  -  3 mph 1012.9mb 41f 43f
7:00am 2 3 mph 1013mb 41f 43f
6:54am  -  3 mph 1013.1mb 41f 44f
6:48am 1 2 mph 1013mb 41f 44f
6:42am  -  1 mph 1013.1mb 41f 43f
6:36am  -  1 mph 1013.1mb 41f 43f
6:30am 1 2 mph 1013.3mb 41f 43f
6:24am  -  2 mph 1013.3mb 41f 43f
6:18am 2
mph
1013.1mb 41f 43f
6:12am  -  mph 1013.2mb 40f 43f
6:06am  -  mph 1013.2mb 40f 43f
6:00am  -  mph 1013.2mb 40f 43f
5:54am  -  1 mph 1013.2mb 40f 43f
5:48am  -  1 mph 1013.3mb 40f 43f
5:42am  -  1 mph 1013.2mb 40f 43f
5:36am 1 2 mph 1013.1mb 40f 43f
5:30am  -  1 mph 1013.1mb 40f 43f
5:24am 1
mph
1013.1mb 40f 43f
5:18am 1 2 mph 1013.2mb 40f 43f
5:12am 1 3 mph 1013.1mb 40f 43f
5:06am 1 6 mph 1013.1mb 40f 43f
5:00am 3
mph
1013mb 40f 43f
4:54am 3
mph
1013.1mb 40f 43f
4:48am 3
mph
1013.1mb 40f 43f
4:42am 2 7 mph 1013mb 40f 43f
4:36am 2 5 mph 1013.1mb 40f 43f
4:30am 3 6 mph 1013.1mb 40f 42f
4:24am 2 5 mph 1013.2mb 40f 43f
4:18am 3 5 mph 1013.2mb 40f 43f
4:12am 2 7 mph 1013.3mb 40f 42f
4:06am 5 7 mph 1013.4mb 40f 42f
4:00am 5 8 mph 1013.3mb 40f 42f
3:54am 5 6 mph 1013mb 40f 42f
3:48am 5 6 mph 1013.3mb 40f 42f
3:42am 3 7 mph 1013mb 40f 42f
3:36am 3 9 mph 1013.1mb 40f 42f
3:30am 3 5 mph 1013mb 40f 42f
3:24am 2 9 mph 1012.7mb 40f 42f
3:18am 2 5 mph 1012.7mb 40f 42f
3:12am 1 21 mph 1012.6mb 40f 41f
3:06am 11 13 mph 1013.2mb 40f 42f
3:00am 1 2 mph 1012.4mb 40f 43f
2:54am  -  3 mph 1012.3mb 40f 42f
2:48am 2 3 mph 1012.5mb 40f -
2:42am  -  3 mph 1012.8mb 40f -
2:36am 2
mph
1012.7mb 40f -
2:30am  -  2 mph 1012.9mb 40f 42f
2:24am  -  1 mph 1012.9mb 40f 43f
2:18am  -  1 mph 1013.1mb 40f 43f
2:12am  -  mph 1013.2mb 40f 43f
2:06am  -  1 mph 1013.2mb 40f 44f
2:00am 1 2 mph 1013.2mb 40f 43f
1:54am 1 3 mph 1013.3mb 40f 43f
1:48am 2 3 mph 1013.2mb 40f 43f
1:42am 2
mph
1013.1mb 40f 44f
1:36am 2
mph
1013.1mb 40f 44f
1:30am  -  1 mph 1013.3mb 40f 44f
1:24am  -  2 mph 1013.2mb 40f 44f
1:18am 1 2 mph 1013.3mb 40f 44f
1:12am  -  1 mph 1013.4mb 40f 44f
1:06am  -  3 mph 1013.4mb 40f 44f
1:00am 2 5 mph 1013.4mb 40f 44f
12:54am 5 6 mph 1013.5mb 40f 44f
12:48am 3 5 mph 1013.4mb 40f 44f
12:42am 3 5 mph 1013.5mb 40f 45f
12:36am 1 3 mph 1013.5mb 40f 45f
12:30am 2 3 mph 1013.4mb 40f 45f
12:24am  -  2 mph 1013.3mb 40f 45f
12:18am 1 2 mph 1013.3mb 40f 44f
12:12am  -  1 mph 1013.3mb 40f 45f
12:06am  -  2 mph 1013.3mb 40f 45f
12:00am  -  2 mph 1013.2mb 40f 44f
Fri 04/28 11:54pm 1 3 mph 1013.3mb 40f 44f
11:48pm 3
mph
1013.4mb 40f 44f
11:42pm  -  1 mph 1013.5mb 40f 44f
11:36pm  -  1 mph 1013.5mb 40f 44f
11:30pm  -  2 mph 1013.5mb 40f 44f
11:24pm 2
mph
1013.5mb 40f 44f
11:18pm 2 3 mph 1013.3mb 40f 44f
11:12pm 2 3 mph 1013.4mb 40f 44f
11:06pm 1 2 mph 1013.5mb 40f 44f
11:00pm 2 3 mph 1013.5mb 40f 44f
10:54pm 2 3 mph 1013.5mb 40f 44f
10:48pm  -  1 mph 1013.3mb 40f 44f
10:42pm  -  2 mph 1013.1mb 40f 44f
10:36pm 2
mph
1013.1mb 41f 44f
10:30pm  -  3 mph 1013.1mb 41f 44f
10:24pm 2 6 mph 1013.4mb 41f 44f
10:18pm 3 5 mph 1013.5mb 41f 44f
10:12pm 2 5 mph 1013.3mb 41f 44f
10:06pm 3 6 mph 1013.2mb 41f 44f
10:00pm 3 5 mph 1013.2mb 41f 44f
9:48pm 5
mph
1013.1mb 41f 44f
9:42pm 2
mph
1012.8mb 42f 44f
9:36pm 2
mph
1012.7mb 42f 44f
9:30pm  -  1 mph 1012.4mb 42f 44f
9:24pm  -  1 mph 1012.5mb 42f 44f
9:18pm  -  1 mph 1012.6mb 42f 44f
9:12pm  -  2 mph 1012.4mb 42f 44f
9:06pm  -  1 mph 1012.6mb 42f 44f
9:00pm  -  1 mph 1012.6mb 42f 43f
8:48pm  -  2 mph 1012.6mb 43f 43f
8:42pm  -  1 mph 1012.6mb 43f 43f
8:36pm  -  2 mph 1012.6mb 43f 43f
8:30pm  -  2 mph 1012.4mb 43f 43f
8:24pm 2 3 mph 1012.9mb 43f 43f
8:18pm  -  1 mph 1012.8mb 43f 43f
8:12pm  -  2 mph 1013mb 43f 43f
8:06pm 1 2 mph 1013mb 43f 43f
8:00pm  -  2 mph 1012.9mb 43f 43f
7:54pm 2
mph
1013mb 43f 43f
7:48pm 2 3 mph 1013mb 43f 43f
7:42pm  -  1 mph 1012.9mb 43f 43f
7:36pm  -  2 mph 1012.8mb 43f 43f
7:30pm  -  3 mph 1012.7mb 43f 43f
7:24pm  -  1 mph 1012.5mb 43f 43f
7:18pm  -  3 mph 1012.5mb 43f 43f
7:12pm 1 6 mph 1012.4mb 42f 43f
7:06pm 2 5 mph 1012.5mb 42f 43f
7:00pm 1 7 mph 1012.6mb 42f 43f
6:48pm 6 9 mph 1012.2mb 42f 43f
6:42pm 6 9 mph 1012.1mb 42f 44f
6:36pm 5 7 mph 1012.1mb 42f 44f
6:30pm 3 6 mph 1012mb 42f 45f
6:24pm  -  2 mph 1012.2mb 42f 45f
6:18pm 1 3 mph 1012.1mb 42f 45f
6:12pm 3 5 mph 1012mb 42f 45f
6:06pm 1 5 mph 1012.4mb 42f 44f
6:00pm  -  5 mph 1012.6mb 42f 44f
5:54pm 2
mph
1012.8mb 41f 44f
5:48pm 1 2 mph 1012.9mb 41f 44f
5:42pm  -  2 mph 1013.1mb 41f 44f
5:36pm  -  2 mph 1013.2mb 41f 43f
5:30pm 1 2 mph 1013.3mb 41f 43f
5:24pm 1 6 mph 1013.4mb 41f 43f
5:18pm 5 7 mph 1013.6mb 41f 43f
5:12pm  -  3 mph 1013.3mb 40f 44f
5:06pm 2 3 mph 1013.2mb 40f 44f
5:00pm 2 6 mph 1013.4mb 40f 45f
4:54pm 2 7 mph 1013.8mb 40f 45f
4:48pm 5 6 mph 1013.5mb 40f 45f
4:42pm 1 2 mph 1014mb 40f 44f
4:36pm  -  1 mph 1013.8mb 40f 45f
4:30pm  -  3 mph 1013.8mb 40f 46f
4:24pm 1 3 mph 1013.9mb 40f 46f
4:18pm  -  1 mph 1014mb 40f 46f
4:12pm  -  1 mph 1014mb 40f 47f
4:06pm  -  1 mph 1014.1mb 40f 47f
4:00pm  -  1 mph 1014.1mb 40f 47f
3:54pm  -  2 mph 1014.1mb 40f 47f
3:48pm  -  2 mph 1014.3mb 40f 47f
3:42pm  -  1 mph 1014.3mb 40f 47f
3:36pm  -  1 mph 1014.2mb 40f 47f
3:30pm  -  2 mph 1014.3mb 40f 47f
3:24pm  -  2 mph 1014.4mb 40f 46f
3:18pm  -  1 mph 1014.5mb 40f 46f
3:12pm  -  1 mph 1014.5mb 40f 46f
3:06pm  -  2 mph 1014.6mb 40f 46f
3:00pm  -  2 mph 1014.7mb 40f 46f
2:54pm 2 3 mph 1014.7mb 40f 46f
2:48pm 1 5 mph 1014.8mb 40f 46f
2:42pm 3 6 mph 1014.7mb 40f 46f
2:36pm 2 8 mph 1014.5mb 40f 46f
2:30pm 7 11 mph 1014.7mb 40f 47f
2:24pm 8 11 mph 1014.4mb 40f 47f
2:18pm 6 7 mph 1014.5mb 40f 48f
2:12pm 5 6 mph 1014.5mb 40f 48f
2:06pm 1
mph
1014.5mb 40f 47f
2:00pm  -  5 mph 1014.6mb 40f 47f
1:54pm 3 6 mph 1014.8mb 40f 46f
1:48pm 6 7 mph 1014.9mb 40f 46f
1:42pm 6 7 mph 1015mb 40f 46f
1:36pm 5 8 mph 1014.9mb 40f 46f
1:30pm 3 6 mph 1014.9mb 40f 46f
1:24pm 6 8 mph 1014.9mb 40f 46f
1:18pm 6
mph
1014.9mb 40f 45f
1:12pm 5 7 mph 1014.9mb 40f 45f
1:06pm 5 6 mph 1014.9mb 40f 45f
1:00pm 3 6 mph 1015.1mb 40f 45f
12:54pm 2
mph
1015.1mb 40f 45f
12:48pm  -  5 mph 1015mb 40f 45f
12:42pm 3 5 mph 1015.1mb 40f 45f
12:36pm 3 6 mph 1015.1mb 40f 44f
12:30pm 3 7 mph 1015.1mb 40f 45f
12:24pm 2 6 mph 1015.1mb 40f 44f
12:18pm  -  5 mph 1015mb 40f 45f
12:12pm 2 6 mph 1015.2mb 40f 44f
12:06pm 5 7 mph 1015.3mb 40f 44f
12:00pm 2 5 mph 1015.2mb 40f 44f
11:54am 2 6 mph 1015.1mb 40f 44f
11:48am 3 8 mph 1015.1mb 40f 45f
11:42am 5 7 mph 1015.1mb 40f 45f
11:36am 2 3 mph 1015.1mb 40f 45f
11:30am 2 5 mph 1015.2mb 40f 45f
11:24am 5 7 mph 1015.3mb 40f 45f
11:18am 6 8 mph 1015.4mb 40f 45f
11:12am 5 8 mph 1015.5mb 40f 45f
11:06am 7 8 mph 1015.4mb 40f 45f
11:00am 6 8 mph 1015.5mb 40f 45f
10:54am 6 8 mph 1015.5mb 40f 45f
10:48am 6 8 mph 1015.6mb 40f 44f
10:42am 7 9 mph 1015.6mb 40f 44f
10:36am 7 10 mph 1015.6mb 40f 44f
10:30am 7 9 mph 1015.7mb 41f 44f
10:24am 7 10 mph 1015.7mb 41f 44f
10:18am 6 9 mph 1015.5mb 41f 44f
10:12am 6 8 mph 1015.6mb 41f 44f
10:06am 5 7 mph 1015.6mb 41f 44f
10:00am 5 7 mph 1015.6mb 41f 44f
9:54am 5 7 mph 1015.5mb 41f 44f
9:48am 5 6 mph 1015.6mb 41f 43f
9:42am 2 3 mph 1015.5mb 41f 43f
9:36am 1 3 mph 1015.3mb 42f 43f
9:30am  -  3 mph 1015mb 42f 43f
9:24am 1 3 mph 1015.3mb 42f 43f
9:18am  -  5 mph 1015.2mb 42f 43f
9:12am 2 6 mph 1015.4mb 42f 43f
9:06am 5 7 mph 1015.5mb 42f 43f
9:00am 3 6 mph 1015.5mb 42f 43f
8:30am 6 8 mph 1015.5mb 43f 43f
8:24am 3 5 mph 1015.6mb 43f 43f
8:18am 2 3 mph 1015.6mb 43f 43f
8:12am  -  5 mph 1015.5mb 43f 43f
8:06am 3 5 mph 1015.4mb 43f 42f
8:00am 2 6 mph 1015.4mb 42f 42f
7:54am 3 6 mph 1015.3mb 42f 42f
7:48am 6 9 mph 1015.3mb 42f 42f
7:42am 5 6 mph 1015.3mb 42f 42f
7:36am 3
mph
1015.3mb 42f 42f
7:30am 1 5 mph 1015.1mb 42f 42f
7:24am 2 5 mph 1015.1mb 42f 42f
7:18am  -  5 mph 1015mb 42f 42f
7:12am 2 5 mph 1015.1mb 42f 42f
7:06am 2 3 mph 1015mb 42f 42f
7:00am 2
mph
1014.9mb 42f 42f
6:54am  -  2 mph 1014.8mb 42f 42f
6:48am  -  2 mph 1014.8mb 42f 42f
6:42am 1 2 mph 1014.8mb 42f 41f
6:36am  -  2 mph 1014.8mb 42f 41f
6:30am  -  3 mph 1014.8mb 42f 41f
6:24am  -  3 mph 1014.7mb 42f 42f
6:18am 2 3 mph 1014.5mb 42f 42f
6:12am 1 2 mph 1014.5mb 42f 42f
6:06am  -  2 mph 1014.4mb 42f 42f
6:00am  -  1 mph 1014.4mb 42f 42f
5:54am  -  2 mph 1014.3mb 41f 42f
5:48am  -  2 mph 1014.4mb 41f 42f
5:42am 1 2 mph 1014.4mb 41f 42f
5:36am 1 2 mph 1014.4mb 41f 42f
5:30am  -  2 mph 1014.4mb 41f 42f
5:24am  -  3 mph 1014.3mb 41f 42f
5:18am 1 2 mph 1014.3mb 41f 42f
5:12am 1 3 mph 1014.4mb 41f 42f
5:06am 2 5 mph 1014.4mb 41f 42f
5:00am  -  1 mph 1014.4mb 41f 42f
4:54am  -  1 mph 1014.3mb 41f 42f
4:48am  -  1 mph 1014.3mb 41f 42f
4:42am  -  1 mph 1014.3mb 41f 42f
4:36am 1 3 mph 1014.4mb 41f 42f
4:30am 1 2 mph 1014.5mb 40f 42f
4:24am  -  2 mph 1014.5mb 40f 42f
4:18am 2 3 mph 1014.4mb 40f 42f
4:12am 2 3 mph 1014.5mb 40f 42f
4:06am  -  2 mph 1014.4mb 40f 42f
4:00am  -  3 mph 1014.5mb 40f 42f
3:54am 1 2 mph 1014.3mb 40f 42f
3:48am  -  2 mph 1014.4mb 40f 42f
3:42am  -  2 mph 1014.3mb 40f 43f
3:36am 1 5 mph 1014.3mb 40f 43f
3:30am 2 5 mph 1014.3mb 40f 43f
3:24am 2 3 mph 1014.4mb 40f 43f
3:18am  -  3 mph 1014.6mb 40f 43f
3:12am 2 3 mph 1014.6mb 40f 43f
3:06am  -  1 mph 1014.8mb 40f 43f
3:00am  -  2 mph 1014.9mb 40f 42f
2:54am 1 2 mph 1014.8mb 40f 42f
2:48am  -  9 mph 1014.9mb 40f 42f
2:42am  -  2 mph 1014.6mb 40f 43f
2:36am  -  5 mph 1014.5mb 40f 43f
2:30am 3 5 mph 1014.6mb 40f 43f
2:24am 3 6 mph 1014.6mb 40f 42f
2:18am 3 5 mph 1014.7mb 40f 42f
2:12am 2 7 mph 1014.7mb 40f 43f
2:06am 3 7 mph 1014.5mb 40f 43f
2:00am 2 5 mph 1014.5mb 40f 43f
1:54am 2 6 mph 1014.4mb 40f 43f
1:48am 5 6 mph 1014.5mb 40f 43f
1:42am 2 3 mph 1014.4mb 40f 43f
1:36am  -  2 mph 1014.5mb 40f 43f
1:30am 1 2 mph 1014.6mb 40f 43f
1:24am  -  1 mph 1014.5mb 40f 43f
1:18am  -  1 mph 1014.5mb 40f 43f
1:12am  -  1 mph 1014.5mb 40f 43f
1:06am  -  3 mph 1014.5mb 40f 43f
1:00am 1 2 mph 1014.4mb 40f 43f
12:54am  -  1 mph 1014.4mb 40f 43f
12:48am  -  1 mph 1014.3mb 40f 43f
12:42am  -  1 mph 1014.4mb 40f 43f
12:36am  -  1 mph 1014.5mb 40f 43f
12:30am 1
mph
1014.5mb 40f 43f
12:24am  -  1 mph 1014.6mb 40f 43f
12:18am  -  1 mph 1014.6mb 40f 43f
12:12am  -  2 mph 1014.7mb 40f 43f
12:06am 1 2 mph 1014.6mb 40f 43f
12:00am  -  1 mph 1014.5mb 40f 43f
Thu 04/27 11:54pm  -  mph 1014.6mb 40f 43f
11:48pm  -  1 mph 1014.5mb 40f 43f
11:42pm  -  1 mph 1014.6mb 40f 43f
11:36pm  -  1 mph 1014.7mb 40f 43f
11:30pm  -  1 mph 1014.7mb 40f 43f
11:24pm  -  2 mph 1014.8mb 40f 43f
11:18pm  -  3 mph 1014.7mb 40f 43f
11:12pm  -  2 mph 1014.7mb 40f 43f
11:06pm  -  2 mph 1014.6mb 40f 43f
11:00pm 1 3 mph 1014.4mb 40f 43f
10:54pm 2 3 mph 1014.3mb 40f 43f
10:48pm  -  5 mph 1014.4mb 40f 43f
10:42pm 1 3 mph 1014.5mb 40f 43f
10:36pm  -  2 mph 1014.6mb 40f 43f
10:30pm  -  3 mph 1014.7mb 40f 43f
10:24pm  -  2 mph 1014.7mb 40f 43f
10:18pm 1 5 mph 1014.8mb 40f 43f
10:12pm 2 3 mph 1014.8mb 40f 43f
10:06pm 1 7 mph 1014.8mb 40f 42f
10:00pm 3 6 mph - 41f 42f
9:48pm 3 7 mph 1014.7mb 41f 42f
9:42pm 5 7 mph 1014.7mb 41f 42f
9:36pm 3 8 mph 1014.6mb 41f 42f
9:30pm 6 8 mph 1014.6mb 41f 43f
9:24pm 6 8 mph 1014.5mb 41f 43f
9:18pm 6 7 mph 1014.4mb 41f 44f
9:12pm 3 5 mph 1014.2mb 41f 44f
9:06pm 2 5 mph 1014.1mb 41f 44f
9:00pm 1 2 mph 1014.1mb 42f 44f
8:48pm 1 3 mph 1014.1mb 43f 44f
8:42pm  -  3 mph 1014.2mb 43f 44f
8:36pm  -  2 mph 1014.2mb 43f 44f
8:30pm 1 3 mph 1014.2mb 43f 44f
8:24pm 1 2 mph 1014.2mb 43f 45f
8:18pm  -  7 mph 1014.1mb 43f 45f
8:12pm 6 8 mph 1014mb 43f 45f
8:06pm 5 8 mph 1014mb 44f 46f
8:00pm 5 8 mph 1014.1mb 45f 46f
7:48pm 2 6 mph 1014.1mb 46f 46f
7:42pm 1 7 mph 1014.1mb 46f 46f
7:36pm 3 8 mph 1014mb 46f 47f
7:30pm 3 5 mph 1014.1mb 45f 47f
7:24pm 3 8 mph 1014.1mb 46f 47f
7:18pm 2 8 mph 1014.2mb 46f 47f
7:12pm 6 9 mph 1014.3mb 46f 48f
7:06pm 5 7 mph 1014.2mb 46f 48f
7:00pm 5 8 mph 1014.4mb 45f 48f
6:48pm 2 5 mph 1014.3mb 45f 48f
6:42pm 1 6 mph 1014.3mb 45f 48f
6:36pm 2 7 mph 1014.2mb 44f 47f
6:30pm 5 7 mph 1014.2mb 44f 47f
6:24pm 3 7 mph 1014.2mb 44f 47f
6:18pm 6 8 mph 1014.3mb 43f 47f
6:12pm 5 6 mph 1014.3mb 43f 47f
6:06pm 3 6 mph 1014.3mb 43f 47f
6:00pm 5 8 mph 1014.3mb 43f 47f
5:54pm 6 7 mph 1014.4mb 43f 47f
5:48pm 3 8 mph 1014.5mb 43f 47f
5:42pm 3 6 mph 1014.4mb 43f 48f
5:36pm 3 7 mph 1014.3mb 43f 48f
5:30pm 6 10 mph 1014.2mb 43f 48f
5:24pm 3 6 mph 1014.4mb 42f 48f
5:18pm 3 5 mph 1014.3mb 43f 49f
5:12pm 2 5 mph 1014.3mb 43f 49f
5:06pm 2 5 mph 1014.2mb 43f 49f
5:00pm 1 5 mph 1014.3mb 43f 49f
4:54pm 2 5 mph 1014.2mb 42f 48f
4:48pm 3 5 mph 1014.3mb 42f 48f
4:42pm 2 7 mph 1014.4mb 42f 48f
4:36pm 5 7 mph 1014.6mb 42f 49f
4:30pm 5 6 mph 1014.6mb 42f 49f
4:24pm  -  5 mph 1014.6mb 42f 49f
4:18pm 3 5 mph 1014.6mb 41f 48f
4:12pm  -  2 mph 1014.6mb 41f 49f
4:06pm  -  1 mph 1014.6mb 40f 49f
4:00pm  -  3 mph 1014.6mb 40f 48f
3:54pm 2 3 mph 1014.8mb 40f 47f
3:48pm 2
mph
1014.9mb 40f 47f
3:42pm 1 3 mph 1015.1mb 40f 47f
3:36pm 1 3 mph 1015.1mb 40f 47f
3:30pm  -  3 mph 1014.8mb 40f 48f
3:24pm 2 5 mph 1014.6mb 40f 47f
3:18pm  -  2 mph 1014.7mb 40f 47f
3:12pm 2 5 mph 1014.7mb 40f 47f
3:06pm 1 3 mph 1014.8mb 40f 47f
3:00pm 1 5 mph 1014.9mb 40f 47f
2:54pm 2 5 mph 1014.8mb 40f 48f
2:48pm  -  3 mph 1014.7mb 40f 47f
2:42pm 1 6 mph 1014.7mb 40f 47f
2:36pm 1 3 mph 1014.8mb 40f 47f
2:30pm  -  3 mph 1014.9mb 40f 46f
2:24pm 2 6 mph 1014.8mb 40f 47f
2:18pm 2 8 mph 1014.8mb 40f 46f
2:12pm 3 8 mph 1014.9mb 40f 46f
2:06pm 5 7 mph 1014.9mb 40f 46f
2:00pm 3 7 mph 1014.9mb 40f 47f
1:48pm 3 8 mph 1014.9mb 40f 47f
1:42pm 6 8 mph 1015mb 40f 47f
1:36pm 5 7 mph 1014.9mb 40f 47f
1:30pm 6 8 mph 1015mb 40f 48f
1:24pm 3 8 mph 1015mb 40f 48f
1:18pm 3 7 mph 1014.9mb 40f 48f
1:12pm 3 7 mph 1014.9mb 40f 48f
1:06pm 5 8 mph 1014.9mb 40f 48f
1:00pm 5 8 mph 1015.1mb 40f 48f
12:54pm 5 8 mph 1015.2mb 40f 48f
12:48pm 5 7 mph 1015.4mb 40f 48f
12:42pm 6 8 mph 1015.3mb 40f 48f
12:36pm 6 8 mph 1015.3mb 40f 48f
12:30pm 6 8 mph 1015.3mb 40f 48f
12:24pm 6 9 mph 1015.4mb 40f 48f
12:18pm 6 8 mph 1015.4mb 40f 48f
12:12pm 5 8 mph 1015.5mb 40f 48f
12:06pm 7 9 mph 1015.5mb 40f 48f
12:00pm 3 7 mph 1015.5mb 40f 48f
11:54am 3 8 mph 1015.5mb 40f 48f
11:48am 6 9 mph 1015.5mb 40f 48f
11:42am 6 8 mph 1015.5mb 40f 48f
11:36am 5 6 mph 1015.5mb 40f 48f
11:30am 3 6 mph 1015.6mb 40f 48f
11:24am 3 6 mph 1015.5mb 40f 48f
11:18am 1 5 mph 1015.5mb 40f 48f
11:12am 2 5 mph 1015.3mb 40f 48f
11:06am  -  1 mph 1015.5mb 40f 47f
11:00am  -  3 mph 1015.5mb 40f 48f
10:54am  -  1 mph 1015.5mb 40f 48f
10:48am  -  1 mph 1015.5mb 40f 48f
10:42am  -  2 mph 1015.4mb 40f 48f
10:36am  -  3 mph 1015.2mb 40f 48f
10:30am 2 3 mph 1015.2mb 40f 47f
10:24am 2 3 mph 1015.3mb 40f 48f
10:18am 1 2 mph 1015.3mb 40f 47f
10:12am 1 3 mph 1015.2mb 40f 47f
10:06am  -  2 mph 1015.2mb 40f 47f
10:00am 2
mph
1015.2mb 40f 47f
9:54am  -  1 mph 1015.3mb 40f 47f
9:48am  -  1 mph 1015.2mb 41f 47f
9:42am  -  1 mph 1015.3mb 41f 47f
9:36am  -  2 mph 1015.3mb 41f 47f
9:30am 1 2 mph 1015.4mb 41f 47f
9:24am  -  3 mph 1015.4mb 41f 47f
9:18am 1 2 mph 1015.6mb 41f 47f
9:12am  -  8 mph 1015.5mb 42f 47f
9:06am 5 6 mph 1015.7mb 42f 47f
9:00am 1 2 mph 1015.7mb 42f 47f
8:48am 2 9 mph 1015.6mb 42f 47f
8:42am 2 7 mph 1015.7mb 42f 47f
8:36am 2 6 mph 1015.6mb 42f 46f
8:30am 3 7 mph 1015.6mb 42f 46f
8:24am 3 6 mph 1015.5mb 42f 46f
8:18am  -  2 mph 1015.3mb 42f 46f
8:12am  -  3 mph 1015.3mb 42f 46f
8:06am  -  5 mph 1015.3mb 43f 46f
8:00am 1 3 mph 1015.2mb 45f 47f
7:54am 2 6 mph 1015.1mb 45f 47f
7:48am 2 5 mph 1015mb 45f 47f
7:42am 2 5 mph 1015mb 45f 47f